This is the latest recevied weather packets stored in our database for station/object KD8DNO-13. If no packets are shown the sender has not sent any weather packets the latest 10 day(s).
| Time | Temp. | Humidity | Pressure | Rain* | Wind** | Luminosity | Snow |
|---|---|---|---|---|---|---|---|
| 1788210184 | 28.89° C | 64% | 1019.9 hPa | 0 mm | - | - | - |
| 1788209885 | 29.44° C | 60% | 1019.9 hPa | 0 mm | - | - | - |
| 1788209584 | 30° C | 62% | 1019.9 hPa | 0 mm | - | - | - |
| 1788209310 | 30° C | 61% | 1019.6 hPa | 0 mm | - | - | - |
| 1788208983 | 29.44° C | 62% | 1019.6 hPa | 0 mm | - | - | - |
| 1788208683 | 29.44° C | 69% | 1019.9 hPa | 0 mm | - | - | - |
| 1788208383 | 28.89° C | 70% | 1019.9 hPa | 0 mm | - | - | - |
| 1788208083 | 28.89° C | 70% | 1019.9 hPa | 0 mm | - | - | - |
| 1788207783 | 28.89° C | 71% | 1020.3 hPa | 0 mm | - | - | - |
| 1788207483 | 28.89° C | 71% | 1020.3 hPa | 0 mm | - | - | - |
| 1788207183 | 29.44° C | 65% | 1020.3 hPa | 0 mm | - | - | - |
| 1788206883 | 29.44° C | 65% | 1020.3 hPa | 0 mm | - | - | - |
| 1788206583 | 30° C | 64% | 1020.3 hPa | 0 mm | - | - | - |
| 1788206283 | 30° C | 61% | 1020.3 hPa | 0 mm | - | - | - |
| 1788205983 | 31.11° C | 61% | 1020.3 hPa | 0 mm | - | - | - |
| 1788205683 | 31.67° C | 59% | 1020.3 hPa | 0 mm | - | - | - |
| 1788205383 | 31.11° C | 61% | 1020.3 hPa | 0 mm | - | - | - |
| 1788205084 | 30.56° C | 62% | 1020.6 hPa | 0 mm | - | - | - |
| 1788204783 | 30.56° C | 63% | 1020.6 hPa | 0 mm | - | - | - |
| 1788204483 | 30° C | 64% | 1020.6 hPa | 0 mm | - | - | - |
| 1788204183 | 30° C | 64% | 1020.6 hPa | 0 mm | - | - | - |
| 1788203883 | 30° C | 64% | 1020.6 hPa | 0 mm | - | - | - |
| 1788203583 | 30° C | 63% | 1020.6 hPa | 0 mm | - | - | - |
| 1788203283 | 30° C | 62% | 1020.6 hPa | 0 mm | - | - | - |
| 1788202983 | 30° C | 60% | 1020.9 hPa | 0 mm | - | - | - |
* Rain latest hour (hover to see other rain measurements)
** Current wind speed in m/s (hover to see current wind gust speed)